Voltar ao catálogo

CZ-6A DEB

AtivoPO
NORAD 64632·DEBRIS·🇨🇳 China

Lançado Aug 6, 2024 de Taiyuan Satellite Launch Center

Loading…

Próximas Passagens (próximas 24 horas)

TLE

AtualizadoSource: Space-Track

Época: Sep 13, 2026, 18:53 UTC

1 64632U 24140ADW 26256.78734530  .00001872  00000-0  72265-3 0  9993
2 64632  89.1453 277.2926 0065295 292.6502  66.7796 14.28717784104422

Acompanhe CZ-6A DEB em tempo real com AllMySat

Download on the App Store